Location: *
(2.5500°S, 65.9667°W)
Time: 23:30:49
(UTC+00:00)

Vanguard 2 Rocket - All Passes

Search period start: 16 April 2024 00:00
Search period end: 26 April 2024 00:00
Orbit: 555 x 3307 km, 32.9° (Epoch: 16 April)

Date Brightness Start Highest point End Pass type
(mag) Time Alt. Az. Time Alt. Az. Time Alt. Az.
16 Apr - 00:15:18 10° WSW 00:28:10 61° NNW 00:47:35 10° NE visible
16 Apr - 02:34:13 10° WNW 02:48:16 28° NNW 03:04:05 10° NNE visible
16 Apr - 05:03:00 10° NW 05:11:53 14° N 05:20:02 10° NNE visible
16 Apr - 07:27:56 10° NNW 07:35:11 14° N 07:41:04 10° NE visible
16 Apr - 09:43:54 10° NNW 09:53:45 30° NNE 09:59:57 10° E visible
16 Apr - 12:00:13 10° WNW 12:08:11 65° SW 12:13:01 10° SE daylight
16 Apr - 21:01:24 10° SSW 21:08:58 34° SE 21:21:09 10° E daylight
16 Apr - 23:12:58 10° WSW 23:24:04 80° NW 23:42:42 10° NE visible
17 Apr - 01:29:09 10° W 01:42:45 36° NNW 02:00:13 10° NNE visible
17 Apr - 03:53:59 10° NW 04:05:18 17° NNW 04:16:26 10° NNE visible
17 Apr - 06:22:10 10° NNW 06:29:45 14° N 06:36:16 10° NNE visible
17 Apr - 08:39:57 10° NNW 08:50:15 24° NNE 08:57:14 10° ENE visible
17 Apr - 10:56:11 10° NW 11:06:14 72° NNE 11:11:54 10° ESE daylight
17 Apr - 13:15:18 10° WSW 13:18:52 16° SW 13:21:48 10° S daylight
17 Apr - 20:01:23 10° S 20:06:33 19° SE 20:13:42 10° E daylight
17 Apr - 22:11:17 10° SW 22:20:39 76° SE 22:37:18 10° ENE daylight
18 Apr - 00:25:24 10° W 00:37:47 46° NNW 00:55:56 10° NE visible
18 Apr - 02:46:25 10° WNW 02:58:55 22° NNW 03:12:35 10° NNE visible
18 Apr - 05:14:59 10° NNW 05:23:33 14° N 05:31:15 10° NNE visible
18 Apr - 07:35:34 10° NNW 07:46:02 20° NNE 07:53:42 10° ENE visible
18 Apr - 09:52:04 10° NW 10:03:40 48° NNE 10:10:19 10° ESE visible
18 Apr - 12:10:02 10° WNW 12:17:17 36° SW 12:21:57 10° SSE daylight
18 Apr - 21:10:09 10° SW 21:17:54 50° SE 21:31:25 10° ENE daylight
18 Apr - 23:22:37 10° WSW 23:33:26 59° NNW 23:51:17 10° NE visible
19 Apr - 01:40:30 10° WNW 01:53:01 27° NNW 02:08:29 10° NNE visible
19 Apr - 04:06:57 10° NW 04:16:49 15° N 04:26:20 10° NNE visible
19 Apr - 06:30:39 10° NNW 06:40:59 17° NNE 06:49:13 10° NE visible
19 Apr - 08:47:49 10° NW 09:00:26 36° NNE 09:08:09 10° E visible
19 Apr - 11:05:17 10° WNW 11:15:31 69° SW 11:21:17 10° SE daylight
19 Apr - 20:09:38 10° SSW 20:15:39 29° SE 20:25:02 10° E daylight
19 Apr - 22:20:35 10° WSW 22:29:48 79° NW 22:46:17 10° NE visible
20 Apr - 00:36:02 10° W 00:47:44 34° NNW 01:04:07 10° NNE visible
20 Apr - 02:59:12 10° NW 03:10:04 17° NNW 03:21:33 10° NNE visible
20 Apr - 05:25:03 10° NNW 05:35:06 16° N 05:43:48 10° NE visible
20 Apr - 07:43:23 10° NNW 07:56:29 28° NNE 08:05:16 10° ENE visible
20 Apr - 10:00:38 10° NW 10:13:14 75° NE 10:20:05 10° ESE visible
20 Apr - 12:20:39 10° W 12:26:17 21° SW 12:30:22 10° S daylight
20 Apr - 19:10:16 10° S 19:13:34 14° SE 19:17:40 10° ESE daylight
20 Apr - 21:19:09 10° SW 21:26:52 73° SE 21:40:59 10° ENE daylight
20 Apr - 23:32:42 10° W 23:43:07 43° NNW 23:59:32 10° NE visible
21 Apr - 01:52:35 10° WNW 02:03:43 21° NNW 02:16:52 10° NNE visible
21 Apr - 04:18:42 10° NNW 04:28:29 15° N 04:37:44 10° NNE visible
21 Apr - 06:38:45 10° NNW 06:51:47 23° NNE 07:01:27 10° ENE visible
21 Apr - 08:55:59 10° NW 09:10:15 53° NNE 09:18:22 10° ESE visible
21 Apr - 11:14:57 10° WNW 11:24:31 42° SW 11:30:14 10° SSE daylight
21 Apr - 20:18:15 10° SSW 20:24:34 44° SE 20:35:24 10° ENE daylight
21 Apr - 22:30:14 10° WSW 22:39:12 56° NNW 22:54:49 10° NE visible
22 Apr - 00:47:21 10° WNW 00:58:02 25° NNW 01:12:11 10° NNE visible
22 Apr - 03:11:52 10° NW 03:21:35 15° N 03:31:34 10° NNE visible
22 Apr - 05:33:53 10° NNW 05:46:16 20° NNE 05:56:29 10° NE visible
22 Apr - 07:51:21 10° NW 08:06:33 40° NNE 08:16:00 10° E visible
22 Apr - 10:09:38 10° WNW 10:22:25 73° SW 10:29:24 10° SE daylight
22 Apr - 12:32:47 10° WSW 12:35:25 12° SW 12:37:41 10° SSW daylight
22 Apr - 19:18:00 10° SSW 19:22:39 23° SE 19:29:24 10° E daylight
22 Apr - 21:28:26 10° WSW 21:36:01 78° NW 21:49:58 10° NE daylight
22 Apr - 23:43:22 10° W 23:53:07 31° NNW 00:07:34 10° NNE visible
23 Apr - 02:05:14 10° NW 02:14:52 17° N 02:25:44 10° NNE visible
23 Apr - 04:28:47 10° NNW 04:40:01 17° N 04:50:17 10° NE visible
23 Apr - 06:46:44 10° NNW 07:02:09 32° NNE 07:12:49 10° E visible
23 Apr - 09:04:29 10° NW 09:19:42 77° NE 09:28:02 10° ESE visible
23 Apr - 11:25:20 10° W 11:33:26 26° SW 11:38:46 10° SSE daylight
23 Apr - 20:27:10 10° SW 20:33:31 70° SE 20:45:00 10° ENE daylight
23 Apr - 22:40:21 10° W 22:48:56 39° NNW 23:02:58 10° NE visible
24 Apr - 00:59:26 10° NW 01:08:46 19° NNW 01:20:22 10° NNE visible
24 Apr - 03:23:22 10° NNW 03:33:13 15° N 03:43:06 10° NE visible
24 Apr - 05:42:10 10° NNW 05:56:59 26° NNE 06:08:33 10° ENE visible
24 Apr - 07:59:31 10° NW 08:16:15 57° NNE 08:26:05 10° ESE visible
24 Apr - 10:19:09 10° WNW 10:31:20 48° SW 10:38:21 10° SE daylight
24 Apr - 19:26:25 10° SSW 19:31:35 38° SE 19:39:54 10° ENE daylight
24 Apr - 21:38:06 10° WSW 21:45:27 52° NNW 21:58:27 10° NE daylight
24 Apr - 23:54:43 10° WNW 00:03:28 22° NNW 00:15:25 10° NNE visible
25 Apr - 02:17:45 10° NNW 02:26:21 15° N 02:35:43 10° NNE visible
25 Apr - 04:37:42 10° NNW 04:51:07 21° NNE 05:02:56 10° ENE visible
25 Apr - 06:54:46 10° NW 07:12:05 44° NNE 07:23:25 10° E visible
25 Apr - 09:13:23 10° WNW 09:28:47 75° SW 09:37:17 10° SE visible
25 Apr - 11:36:42 10° WSW 11:42:27 17° SW 11:46:46 10° S daylight
25 Apr - 18:26:26 10° S 18:29:52 18° SE 18:34:19 10° E daylight
25 Apr - 20:36:25 10° WSW 20:42:40 75° NNW 20:53:59 10° NE daylight
25 Apr - 22:51:03 10° WNW 22:58:58 27° NNW 23:10:50 10° NNE visible
